Theta_e
325 324 324 324 323 323 323 324 325 326 326 326 327 328 327 325 322 308 303 309 316 330 326 311 305 304 304 304 304 301 293 290 289 290 291 294 294 295 295 292 293 294 292 294 294
324 323 323 323 323 323 323 323 325 325 326 326 326 328 327 324 311 305 317 324 331 328 306 302 301 303 300 300 301 296 292 292 293 293 292 294 293 294 292 290 290 290 293 293 292
323 322 322 322 322 323 323 323 324 325 325 325 326 327 325 319 304 304 323 328 327 325 308 303 303 302 298 299 296 294 291 295 296 296 296 295 293 293 291 289 290 289 289 290 290
322 321 321 321 321 322 322 322 323 324 325 325 326 327 324 312 294 306 326 327 328 312 306 304 301 297 295 294 298 292 296 297 299 298 296 294 294 291 290 290 292 290 290 289 288
321 321 320 320 320 321 321 322 323 324 324 325 326 326 313 301 301 309 320 315 306 306 303 301 298 296 293 295 296 293 295 297 297 297 296 296 292 291 288 290 291 290 290 288 288
319 320 319 319 320 320 319 321 323 323 323 325 326 323 307 299 308 310 305 306 304 304 302 301 298 299 296 296 293 295 296 296 297 296 296 293 290 291 290 290 289 289 288 288 289
318 320 319 319 319 319 318 320 323 323 323 325 326 317 306 303 308 306 305 303 303 302 302 301 300 298 297 295 297 295 292 294 294 295 294 293 289 290 291 289 288 287 287 288 288
318 319 319 318 319 318 317 320 321 322 324 325 325 313 301 309 308 307 304 304 303 302 303 301 301 299 296 297 295 291 289 287 292 294 293 291 286 290 290 289 286 285 284 286 286
318 319 318 318 318 317 317 319 320 323 324 324 313 307 299 313 306 308 303 301 301 301 301 303 301 297 295 292 288 287 284 285 288 294 292 290 286 289 289 287 285 283 283 283 283
318 318 318 318 317 317 317 320 320 319 315 313 308 301 302 302 307 306 304 302 300 300 300 299 293 290 290 288 285 284 282 284 285 289 290 289 288 288 289 285 284 282 282 281 282
319 318 318 318 317 317 314 303 301 300 301 299 297 300 302 308 306 303 302 300 300 297 293 295 291 289 290 289 288 286 285 284 287 291 288 288 290 287 289 284 282 281 280 280 282
319 318 317 317 317 316 306 297 299 301 294 298 300 303 305 303 298 301 301 296 296 292 292 291 288 292 292 290 288 287 285 285 288 289 287 287 286 289 288 286 285 283 280 280 281
318 317 316 316 315 308 300 300 307 304 292 296 302 302 303 301 297 298 297 295 293 291 291 289 291 292 290 287 286 285 285 284 284 286 285 284 282 287 285 286 283 282 282 281 281
318 317 315 314 307 302 301 305 306 303 286 290 296 300 299 299 295 299 297 295 293 292 290 288 290 289 287 287 287 283 286 286 284 281 278 281 277 280 281 282 282 282 280 280 280
317 316 313 312 298 299 303 305 303 297 276 291 298 303 300 296 296 296 297 295 293 292 291 290 286 286 286 287 289 285 285 284 283 280 277 279 276 279 279 279 280 281 280 279 280
317 315 309 306 300 300 302 300 297 286 278 290 297 295 294 294 295 296 295 295 293 288 287 289 289 287 287 288 287 288 285 283 280 278 272 278 277 275 276 280 281 282 279 280 280
317 313 307 304 297 301 302 297 283 279 289 290 293 295 292 292 292 293 291 289 290 285 284 286 286 286 289 285 287 286 281 276 273 271 274 277 275 282 282 282 282 282 279 279 279
316 310 307 305 302 301 299 291 278 284 287 293 292 291 290 292 291 291 288 287 288 287 282 282 281 285 288 286 285 284 282 277 270 271 279 275 275 280 280 280 283 283 280 278 278
311 304 305 303 302 302 290 282 285 287 291 292 291 287 287 290 291 287 286 286 290 289 286 281 281 284 284 285 285 281 278 281 274 262 266 274 277 281 278 277 277 278 278 277 278
308 307 303 304 303 298 285 288 289 292 294 293 287 290 286 289 288 286 285 288 288 289 289 286 281 282 281 283 282 282 283 276 275 269 266 273 275 279 275 275 276 276 276 277 278
307 299 300 304 304 294 287 287 291 295 295 292 289 288 289 288 287 284 287 289 290 286 287 284 284 280 280 279 281 277 277 278 277 279 272 271 280 280 279 279 276 277 278 277 277
304 293 300 304 293 288 290 289 293 293 295 294 292 291 290 289 286 286 287 291 290 287 284 284 281 277 278 280 280 280 281 281 275 274 275 275 278 282 281 281 279 278 278 277 278
298 295 304 303 288 289 290 291 293 291 293 292 291 292 292 289 286 289 291 292 288 288 284 284 279 274 278 277 276 276 277 281 278 278 277 273 278 278 277 277 278 277 277 277 277
299 290 296 297 296 290 289 290 290 294 293 292 291 292 290 288 292 287 287 287 287 288 293 289 281 281 281 283 279 275 274 277 280 277 278 278 279 284 279 276 275 275 276 276 277
299 292 294 288 290 293 292 290 289 289 292 294 291 291 290 287 288 287 288 283 282 287 285 285 281 280 285 287 281 282 283 278 277 280 278 281 282 285 287 283 276 278 276 276 276
299 295 293 288 291 291 292 290 289 289 291 290 290 290 292 288 289 286 290 284 286 279 280 281 280 280 279 282 280 279 282 282 282 281 281 281 280 288 288 277 276 276 276 276 276
308 302 299 295 289 289 289 290 290 292 293 294 293 292 289 292 295 295 291 290 291 285 279 278 279 276 278 280 278 275 280 281 282 283 282 277 282 287 283 277 275 275 277 277 277
Wind_Speed
15 16 17 17 16 15 15 15 15 13 11 11 11 9 8 9 6 6 6 4 6 13 8 7 3 5 2 3 3 3 5 1 2 3 2 2 3 5 4 8 6 5 4 6 1
16 16 17 18 17 15 15 14 13 13 11 10 8 7 6 7 2 6 3 8 10 7 4 6 6 7 3 1 2 5 4 2 1 3 3 1 3 8 6 4 5 6 6 6 6
16 17 18 19 18 17 16 13 12 11 10 9 8 6 6 5 3 3 3 8 8 4 2 2 3 1 3 3 2 2 3 2 1 3 3 4 1 2 13 2 7 10 8 5 7
15 16 18 19 20 18 18 16 12 12 10 9 7 5 5 1 1 1 7 8 9 3 2 3 5 4 3 4 2 3 1 2 6 3 4 5 4 5 1 3 10 12 11 7 9
17 16 17 18 20 20 20 17 14 11 9 8 6 3 1 3 4 0 7 7 4 3 4 4 5 2 2 3 5 1 4 3 1 5 6 7 1 7 4 6 9 10 8 9 7
18 17 17 18 20 21 21 20 15 12 10 6 4 1 2 1 3 3 4 3 5 4 3 5 3 2 1 2 0 2 3 7 6 2 5 7 3 2 8 7 9 9 9 8 9
18 18 17 18 19 21 22 22 18 13 8 4 1 1 2 3 1 2 3 2 2 1 1 1 3 2 1 3 3 3 5 6 4 5 5 10 1 9 9 10 11 10 9 8 7
16 16 17 18 19 22 22 23 20 18 6 2 2 1 3 1 0 2 1 1 1 2 2 2 2 3 2 2 3 2 3 3 3 3 1 6 10 5 10 14 11 9 7 8 7
13 14 16 18 20 22 23 25 20 8 3 4 3 3 3 1 2 2 0 1 1 2 2 1 2 3 4 3 5 5 3 5 7 8 2 6 7 5 8 11 10 9 8 7 6
10 12 15 17 19 21 25 20 13 5 1 2 1 3 2 3 1 1 1 1 1 1 1 2 5 3 4 4 4 5 5 6 7 3 4 7 14 8 14 9 13 9 8 8 7
11 10 13 16 18 21 13 7 8 6 8 4 2 3 1 3 1 2 1 1 1 3 2 3 4 6 8 7 4 3 5 7 6 6 5 11 17 13 16 9 10 10 10 9 9
13 11 12 16 19 19 2 5 3 1 9 2 3 3 3 2 2 4 1 5 4 3 0 7 4 5 2 3 4 5 6 8 10 5 3 9 11 9 16 21 22 17 11 10 6
12 11 12 16 19 4 3 4 2 1 1 6 3 2 2 5 4 5 2 3 4 4 5 5 4 5 3 3 5 5 6 6 8 4 6 9 8 18 3 10 7 9 10 8 10
11 10 11 19 2 1 1 1 2 2 5 7 4 3 3 3 3 0 1 2 2 7 4 6 1 4 5 5 7 6 2 5 4 4 4 4 12 4 7 15 12 14 10 10 9
10 8 9 4 3 1 2 1 2 3 3 6 4 3 3 5 5 2 1 3 5 6 5 9 6 6 6 7 8 8 0 4 3 5 3 7 6 6 3 9 14 17 13 10 9
10 6 6 1 2 1 2 2 2 6 9 4 5 5 4 4 3 3 2 3 2 3 1 6 0 5 7 2 1 1 3 4 3 3 2 7 9 6 7 11 9 15 11 12 9
9 6 1 1 2 4 2 2 4 6 3 6 6 6 4 6 4 6 6 5 6 1 4 2 4 1 3 2 3 4 5 5 6 3 9 5 3 17 9 8 11 23 17 11 9
8 5 5 2 4 4 2 5 8 8 8 2 4 3 7 8 4 5 4 4 5 3 3 4 8 8 5 6 7 6 7 7 7 5 15 2 11 8 5 7 7 12 14 10 9
9 1 3 4 6 3 4 7 12 10 8 10 3 4 6 4 3 5 8 7 9 11 10 7 8 2 0 1 4 5 6 1 1 2 4 7 8 6 4 3 6 11 11 10 9
3 2 4 9 8 4 3 18 9 9 6 4 13 10 9 7 7 8 9 6 6 11 4 5 7 2 2 1 1 4 4 3 2 3 8 7 11 14 8 11 8 11 13 10 9
2 3 2 7 5 3 12 11 10 8 5 8 9 8 8 9 9 7 8 4 8 6 6 6 5 3 4 8 11 1 4 3 2 5 6 5 19 7 16 19 20 18 16 13 10
3 5 4 8 6 4 16 9 7 8 10 7 5 9 12 10 8 9 14 12 11 11 12 8 6 7 14 2 2 3 11 13 6 7 8 3 21 4 10 12 19 17 14 9 8
4 4 4 3 10 12 5 7 11 8 12 11 12 9 6 8 6 12 14 6 13 13 13 10 5 3 7 1 2 7 7 11 1 1 21 10 17 1 1 7 12 16 12 10 9
5 5 5 6 9 9 13 15 15 10 21 7 8 6 6 10 14 8 5 5 5 7 8 14 7 10 18 13 7 7 10 11 18 15 19 29 38 26 12 8 6 7 8 9 8
7 9 9 9 18 21 13 8 23 16 9 19 16 21 13 13 15 16 8 1 1 5 5 9 14 9 22 19 5 15 24 13 24 28 21 40 33 30 25 14 17 19 10 10 8
11 8 3 3 4 25 27 35 26 13 13 21 24 15 25 25 22 16 23 8 11 2 8 4 9 6 16 10 9 22 27 23 27 31 29 36 40 40 26 3 9 14 14 11 8
7 3 10 16 12 15 30 33 28 21 19 21 21 20 23 29 29 28 7 7 10 15 13 10 7 5 22 3 3 18 26 28 22 26 21 25 40 31 19 9 12 15 16 14 10
Wind_Direction
6 1 356 354 353 350 348 346 345 349 355 352 355 348 342 334 346 39 40 272 295 310 326 289 359 349 53 22 37 103 60 15 327 138 159 345 104 32 1 83 50 24 87 124 112
0 358 355 351 345 345 343 343 342 342 347 348 346 344 335 324 74 50 238 286 290 310 5 17 349 351 7 348 25 84 101 218 345 130 150 27 121 145 92 67 63 84 72 83 71
355 353 352 348 345 339 338 341 337 335 346 344 337 338 328 307 50 313 310 305 304 291 227 291 291 311 34 10 357 148 164 193 85 140 169 148 72 66 129 187 195 161 143 120 92
352 350 347 346 341 337 336 335 338 337 346 343 330 328 339 262 140 263 329 328 321 313 279 29 11 27 42 336 341 350 294 195 175 200 147 155 132 64 0 148 136 149 153 139 108
346 345 343 342 337 336 331 330 333 333 338 338 320 344 65 48 221 38 350 347 16 355 45 47 50 360 5 326 341 164 316 338 121 172 125 109 141 147 128 138 129 137 131 128 127
343 340 341 341 338 334 330 324 325 325 332 326 309 348 138 230 120 34 360 7 29 15 23 42 113 135 273 297 332 312 297 287 289 178 161 122 176 76 219 173 145 140 147 149 140
342 335 336 338 335 331 327 321 321 314 326 301 285 250 127 226 195 67 49 116 28 38 113 127 133 129 160 319 325 325 328 324 243 190 202 112 331 230 161 171 168 169 167 160 156
336 328 333 334 334 330 324 317 317 308 321 199 141 161 224 103 152 337 346 73 99 42 98 142 115 108 138 278 21 14 56 351 279 165 196 130 256 236 175 167 181 176 173 168 177
326 325 329 331 332 327 322 312 309 297 148 144 122 143 257 112 190 212 172 198 338 81 52 98 71 94 36 69 6 4 241 229 310 204 135 184 265 226 183 182 186 193 185 178 165
312 324 325 329 329 327 321 302 289 309 116 155 41 39 137 221 159 267 217 126 63 78 41 51 50 56 28 73 253 247 280 271 238 263 195 246 261 194 198 197 198 193 193 184 174
304 318 325 326 327 328 342 352 13 343 38 222 219 258 123 303 111 223 153 95 60 35 22 341 63 238 248 211 196 204 233 229 251 252 222 231 245 207 200 206 206 203 197 187 191
307 318 324 322 322 324 9 72 83 256 303 318 236 262 219 160 290 214 113 165 156 199 343 5 253 226 185 223 235 230 260 263 285 241 206 270 248 233 189 213 207 192 193 189 194
306 312 323 321 317 25 69 137 349 343 284 298 224 203 194 147 223 207 193 158 160 160 201 168 255 110 168 231 256 231 211 251 239 341 292 286 247 242 225 228 189 191 194 185 184
299 308 325 326 350 320 89 333 41 41 50 265 244 239 133 154 263 42 353 161 189 194 190 229 245 185 223 232 171 276 229 258 284 3 259 351 292 243 195 226 203 188 197 186 190
287 299 325 338 282 309 109 84 56 59 1 252 193 154 145 167 135 219 348 60 195 187 131 252 175 189 218 224 163 236 75 263 262 257 350 229 258 246 143 248 210 197 193 189 195
269 265 339 11 336 130 129 95 71 52 250 239 148 183 157 183 196 111 160 50 58 152 276 247 342 187 209 133 141 31 334 299 47 100 259 233 196 226 194 217 192 202 187 187 185
257 228 224 87 250 140 127 67 36 178 273 220 204 178 187 184 203 177 177 181 189 271 267 337 221 65 154 124 24 80 56 315 335 347 236 177 237 257 237 225 195 195 181 183 180
207 167 219 188 136 131 81 57 204 221 227 70 145 110 183 159 223 168 148 232 232 112 112 204 304 175 181 196 184 176 175 167 258 245 292 354 246 254 291 305 228 172 163 170 175
139 205 226 192 146 114 90 215 195 190 202 159 80 166 227 219 199 153 200 202 210 169 185 176 265 114 251 167 158 177 191 150 174 124 10 238 278 282 85 49 108 148 162 182 185
166 211 222 145 137 93 129 229 217 200 148 147 184 177 191 203 175 180 187 203 212 187 154 211 289 216 170 159 20 164 155 67 5 281 272 263 269 245 198 206 188 185 193 196 196
148 231 180 136 120 169 219 227 224 245 187 171 202 204 200 182 194 195 215 235 199 164 146 143 172 182 120 207 181 157 216 200 189 164 223 296 279 209 192 202 192 201 195 191 195
197 234 171 165 172 224 226 191 218 213 216 256 204 203 190 182 203 209 212 203 164 154 168 198 165 201 211 233 291 236 204 183 180 223 236 193 259 169 207 196 195 202 192 189 188
210 191 183 253 214 212 236 235 237 189 199 216 229 194 191 196 249 208 239 203 157 159 171 178 216 324 314 6 341 224 209 218 14 333 244 237 267 74 181 153 199 186 184 189 184
152 213 181 213 234 223 214 230 223 209 231 199 207 172 161 224 218 255 220 220 202 207 157 145 186 180 237 235 137 215 197 203 212 237 257 241 264 258 248 202 203 200 188 187 188
182 218 189 201 220 224 223 236 222 223 211 206 239 222 199 232 224 232 219 215 308 205 175 170 235 191 247 259 189 261 258 202 217 238 236 261 258 265 265 232 204 200 179 180 182
192 191 195 191 170 207 219 232 231 220 182 213 226 202 218 230 213 227 223 178 202 163 172 191 251 152 259 242 223 258 262 250 244 250 249 254 268 265 278 150 169 179 179 178 187
219 287 197 210 197 192 221 235 236 222 237 227 224 228 230 227 227 237 214 191 202 181 184 168 183 138 256 124 14 271 247 236 246 242 233 243 245 264 260 198 178 176 178 179 183